Location: St. Louis
(38.6270°N, 90.1994°W)
Time: 12:03:13
(UTC-06:00)

A-11 Canister half - Pass Details

Date: 11 December 2021
Orbit: 1524 x 1684 km, 47.3° (Epoch: 25 January)

Event Time Altitude Azimuth Distance (km) Brightness Sun altitude
Rises 22:02:20 0° 215° (SW) 4,863 - -61.5°
Reaches altitude 10° 22:05:32 10° 211° (SSW) 3,896 - -62.1°
Maximum altitude 22:15:11 55° 137° (SE) 1,961 - -63.8°
Drops below altitude 10° 22:24:58 10° 64° (ENE) 3,949 - -65.4°
Sets 22:28:12 0° 60° (ENE) 4,934 - -65.9°
